Location: Helion Bumpstead
(52.0500°N, 0.4000°E)
Time: 07:56:51
(UTC+00:00)

Cosmos 292 Rocket - Pass Details

Date: 15 November 2025
Orbit: 662 x 682 km, 74.0° (Epoch: 14 December)

Event Time Altitude Azimuth Distance (km) Brightness Sun altitude
Exits shadow 05:34:56 - 339° (NNW) 2,481 6.3 -15.7°
Reaches altitude 10° 05:35:50 10° 342° (NNW) 2,137 6.0 -15.6°
Maximum altitude 05:40:33 54° 60° (ENE) 832 4.5 -14.9°
Drops below altitude 10° 05:45:13 10° 138° (SE) 2,114 7.1 -14.2°
Sets 05:47:33 0° 143° (SE) 3,022 7.9 -13.8°
